COSMOS 1275 DEB, 42164

Orbit data source: Space-Track

COSMOS 1275 DEB, 42164 is space debris in LEO originally from a launch on Thu, 04 Jun 1981 UTC launched from the Plesetsk Missile And Space Complex (PKMTR). Debris objects in space refer to the collection of defunct objects orbiting the Earth. Examples of debris include non-operational satellites, rocket bodies, and fragments generated from explosions, collisions, or faulty payload assembly.

Loading next visibility...
Identifier
42164, 1981-053SC
Orbit
LEO
Last TLE update
13 hours ago
Origin
Manufacturer
Unknown
Mission
Spacecraft
Bus & Motor
Unknown
Mass
Unknown
Launch date (UTC)
1981-06-04 (44 years ago)
Launch vehicle
Unknown
Launch site
Plesetsk Missile And Space Complex (PKMTR)
Object type
Payload
Rocket body
Debris
Shape & HBR
Unknown
Radar Cross Section
Small (<0.1 m²)

Expand to show TLE details & history

TLE from 13 hours ago
0 COSMOS 1275 DEB
1 42164U 81053SC  25199.42593835  .00005305  00000-0  13079-2 0  9994
2 42164  82.9219 261.6059 0020151   3.9866 356.1489 14.51920350607010
Epoch: 2025-07-18T10:13Z
TLE epoch observation values (Epoch: 2025-07-18T10:13:21.073Z)
Latitude
-0.00006°
Longitude
171.79052°
Altitude
708.117 km
Speed
7.509 km/s
True Right ascension
17h 26m 25s
True Declination
0° 00' 00"
Sunlit
Object was in full shadow at epoch
Visualization orbit readout
Latitude
-9.95099°
Longitude
170.08562°
Altitude
710.21 km
Speed
7.507 km/s
Apparent Right ascension
19h 56m 01s
Apparent Declination
-34° 57' 40"
Sunlit
Object is in full shadow
Visualization observer readout
Local Sidereal Time
12:12:07
Azimuth
105.851° ESE
Elevation
-40.013°
Doppler factor
1
Orbital elements
Apogee altitude
730.724 km
Perigee altitude
702.131 km
Semi-major axis
7,094.564 km
Eccentricity
0.00202
Inclination
82.9219°
RAAN
261.6059°
Arg. of periapsis
3.9866°
True anomaly
356.13335°
Mean anomaly
356.1489°
Eccentric anomaly
356.14113°
Mean motion
3.63207 °/min
Orbital period
99.12 mins
BSTAR
0.0013079
Loading maneuver chart data...
Loading SW <> Apogee altitude chart data...
Loading historical data...
Loading historical data...
Loading historical data...
Loading historical data...
Loading historical data...
Loading historical data...
Loading historical data...
|